Location: Ch?enovice
(49.7164°N, 15.2160°E)
Time: 07:02:01
(UTC+00:00)

DELTA 2 R/B (1) - Pass Details

Date: 23 May 2024
Orbit: 788 x 801 km, 39.6° (Epoch: 15 June)

Event Time Altitude Azimuth Distance (km) Brightness Sun altitude
Exits shadow 00:26:20 28° 192° (SSW) 1,449 4.3 -16.8°
Maximum altitude 00:27:01 29° 178° (S) 1,422 4.4 -16.8°
Drops below altitude 10° 00:31:44 10° 120° (ESE) 2,349 5.9 -16.5°
Sets 00:34:29 0° 110° (ESE) 3,276 6.8 -16.3°
